Fort Knox, KY

6:52 PM EDT on June 27, 2017 (GMT -0400)
Godman Army Air Field

Weather History for KFTK - April, 2013

Change the Weather History Date:

Tuesday, April 9, 2013

  Actual Average Record
Temperature  
Mean Temperature 70 °F -  
Max Temperature 81 °F 64 °F 84 °F (2001)
Min Temperature 61 °F 43 °F 23 °F (1997)
Cooling Degree Days 6    
Growing Degree Days 20 (Base 50)    
Moisture  
Dew Point 56 °F    
Average Humidity 62    
Maximum Humidity 75    
Minimum Humidity 44    
Precipitation  
Precipitation 0.00 in - - ()
Sea Level Pressure  
Sea Level Pressure 30.00 in    
Wind  
Wind Speed 8 mph (South)    
Max Wind Speed 18 mph    
Max Gust Speed 25 mph    
Visibility 10 miles    
Events      
Averages and records for this station are not official NWS values.
T = Trace of Precipitation, MM = Missing Value Source: NWS Daily Summary

Daily Weather History Graph

Daily Weather History Graph

Search for Another Location

Airport or City:

Trip Planner

Search our weather history database for the weather conditions in past years. The results will help you decide how hot, cold, wet, or windy it might be!

Date:

Astronomy

Apr. 09, 2013 Rise Set
Actual Time 7:16 AM EDT 8:14 PM EDT
Civil Twilight 6:50 AM EDT 8:41 PM EDT
Nautical Twilight 6:18 AM EDT 9:13 PM EDT
Astronomical Twilight 5:45 AM EDT 9:46 PM EDT
Moon 6:38 AM EDT (4/9) 7:49 PM EDT (4/9)
Length of Visible Light 13h 51m
Length of Day
12h 57m
Waning Crescent, 1% of the Moon is Illuminated
Apr 9
Waning Crescent
Apr 10
New
Apr 18
First Quarter
Apr 25
Full
May 2
Last Quarter

Hourly Weather History & Observations

Time (EDT) Temp. Heat Index Dew Point Humidity Pressure Visibility Wind Dir Wind Speed Gust Speed Precip Events Conditions
12:55 AM 62.6 °F - 51.1 °F 66% 29.99 in 10.0 mi SE 3.5 mph - N/A   Mostly Cloudy
1:55 AM 63.9 °F - 52.0 °F 65% 29.99 in 10.0 mi SSE 4.6 mph - N/A   Mostly Cloudy
2:55 AM 62.8 °F - 52.0 °F 68% 29.99 in 10.0 mi SSE 4.6 mph - N/A   Mostly Cloudy
3:55 AM 61.2 °F - 52.2 °F 72% 29.98 in 10.0 mi SSE 4.6 mph - N/A   Overcast
4:55 AM 61.2 °F - 52.5 °F 73% 29.99 in 10.0 mi SSE 5.8 mph - N/A   Overcast
5:55 AM 61.7 °F - 53.2 °F 74% 30.00 in 10.0 mi South 5.8 mph - N/A   Mostly Cloudy
6:55 AM 61.5 °F - 53.2 °F 74% 30.02 in 10.0 mi SSE 6.9 mph - N/A   Mostly Cloudy
7:55 AM 63.7 °F - 54.0 °F 71% 30.04 in 10.0 mi South 11.5 mph - N/A   Mostly Cloudy
8:55 AM 65.3 °F - 55.0 °F 69% 30.04 in 10.0 mi South 9.2 mph - N/A   Mostly Cloudy
9:55 AM 68.5 °F - 56.8 °F 66% 30.05 in 10.0 mi South 9.2 mph - N/A   Mostly Cloudy
11:55 AM 75.0 °F - 57.7 °F 55% 30.07 in 10.0 mi SSW 17.3 mph 23.0 mph N/A   Mostly Cloudy
12:55 PM 75.7 °F - 57.6 °F 53% 30.06 in 10.0 mi South 18.4 mph 24.2 mph N/A   Mostly Cloudy
1:55 PM 79.2 °F - 57.6 °F 47% 30.01 in 10.0 mi SSW 13.8 mph 24.2 mph N/A   Mostly Cloudy
2:55 PM 80.2 °F 80.5 °F 57.0 °F 45% 29.99 in 10.0 mi SSW 17.3 mph 25.3 mph N/A   Mostly Cloudy
3:55 PM 79.9 °F - 56.3 °F 44% 29.97 in 10.0 mi South 16.1 mph 25.3 mph N/A   Scattered Clouds
4:55 PM 80.6 °F 80.9 °F 57.9 °F 46% 29.95 in 10.0 mi SSW 15.0 mph - N/A   Scattered Clouds
5:55 PM 78.3 °F - 59.2 °F 52% 29.96 in 10.0 mi SSW 16.1 mph 23.0 mph N/A   Mostly Cloudy
6:55 PM 76.6 °F - 59.7 °F 56% 29.96 in 10.0 mi South 13.8 mph - N/A   Mostly Cloudy
7:55 PM 73.2 °F - 58.3 °F 59% 29.98 in 10.0 mi SSW 12.7 mph - N/A   Mostly Cloudy
8:55 PM 71.4 °F - 58.8 °F 64% 29.99 in 10.0 mi SSW 8.1 mph - N/A   Mostly Cloudy
9:55 PM 70.5 °F - 59.4 °F 68% 29.99 in 10.0 mi SSW 5.8 mph - N/A   Overcast
10:55 PM 67.8 °F - 58.8 °F 73% 29.98 in 10.0 mi South 5.8 mph - N/A   Partly Cloudy
11:55 PM 67.8 °F - 59.5 °F 75% 29.97 in 10.0 mi South 5.8 mph - N/A   Mostly Cloudy